Location: *
(2.5500°S, 65.9667°W)
Time: 12:23:37
(UTC+00:00)

H-2A R/B - Pass Details

Date: 26 October 2021
Orbit: 527 x 651 km, 98.3° (Epoch: 28 November)

Event Time Altitude Azimuth Distance (km) Brightness Sun altitude
Rises 23:10:07 0° 155° (SSE) 2,963 5.9 -14.6°
Reaches altitude 10° 23:12:29 10° 147° (SSE) 2,043 5.0 -15.2°
Maximum altitude 23:16:38 39° 79° (ENE) 953 3.0 -16.2°
Drops below altitude 10° 23:20:41 10° 10° (N) 1,984 4.9 -17.1°
Sets 23:22:56 0° 2° (N) 2,867 5.8 -17.7°
